Regional Weather Roundup
Issued by NWS Cleveland, OH

Home | Current Version | Previous Version | Graphics & Text | Print | Product List | Glossary On
Versions: 1 2 3 4 5 6 7 8 9 10 11 12 13 14 15 16 17 18 19 20 21 22 23 24 25 26 27 28 29 30 31 32 33 34 35 36 37 38 39 40 41 42 43 44 45 46 47 48 49 50
000
ASUS41 KCLE 231710
RWRCLE
OHIO REGIONAL WEATHER ROUNDUP
NATIONAL WEATHER SERVICE CLEVELAND, OH
100 PM EDT WED AUG 23 2017

NOTE: "FAIR" INDICATES FEW OR NO CLOUDS BELOW 12,000 FEET WITH NO
SIGNIFICANT WEATHER AND/OR OBSTRUCTIONS TO VISIBILITY.

OHZ001>008-015>018-024>027-034-035-043-044-231800-
   NORTHWEST OHIO

CITY           SKY/WX    TMP DP  RH WIND       PRES   REMARKS
DEFIANCE       MOSUNNY   73  52  47 W13G20    30.00F
FINDLAY        MOSUNNY   76  52  43 W12G21    30.00S
TOLEDO EXPRESS PTSUNNY   73  54  51 W13       29.98S
TOLEDO EXEC    MOSUNNY   75  53  46 NW13G21   29.99S
LIMA           MOSUNNY   72  54  53 NW7       30.02S
$$

OHZ009>014-019>023-028>033-038-089-231800-
   NORTHEAST OHIO

CITY           SKY/WX    TMP DP  RH WIND       PRES   REMARKS
CLE-HOPKINS    PTSUNNY   73  59  60 W16G23    29.98S
CLE-LAKEFRONT  MOSUNNY   74  57  55 W13       29.96S
CUY CO. ARPT   MOSUNNY   73  55  53 NW16      29.97S
LORAIN-ELYRIA  MOSUNNY   72  52  49 W10       29.98F
ASHTABULA      MOSUNNY   71  56  58 W10G21    29.96S
AKRON-CANTON   PTSUNNY   73  50  44 W10       29.98F
WOOSTER        MOSUNNY   73  55  53 W6        29.99F
MANSFIELD      MOSUNNY   73  53  49 W10       30.00F
YOUNGSTOWN     PTSUNNY   71  54  54 W9        29.96F
$$

OHZ042-051>053-060>062-070>072-077>081-231800-
  SOUTHWEST OHIO

CITY           SKY/WX    TMP DP  RH WIND       PRES   REMARKS
CINC-COVINGTON MOSUNNY   76  55  48 NW7       30.04F
CINC-LUNKEN    MOSUNNY   78  54  43 VRB5      30.03F
HAMILTON       MOSUNNY   78  57  48 VRB6      30.04F
DAYTON         MOSUNNY   75  51  43 NW14      30.04F
WRIGHT-PAT AFB MOSUNNY   73  53  48 W9        30.03F
DAYTON GENERAL PTSUNNY   73  51  46 NW10      30.03F
WILMINGTON     MOSUNNY   73  55  53 N9        30.03F
$$

OHZ036-037-039>041-045>050-054>059-063>069-073>076-082>088-231800-
  CENTRAL AND SOUTHEAST OHIO

CITY           SKY/WX    TMP DP  RH WIND       PRES   REMARKS
COLUMBUS       MOSUNNY   74  54  49 NW9       30.00F
OSU AIRPORT    MOSUNNY   73  55  53 NW9       30.01F
BOLTON FIELD   PTSUNNY   73  55  53 CALM      30.02F
RICKENBACK AFB MOSUNNY   75  52  44 NW9       30.01S
NEWARK         MOSUNNY   74  50  42 NW8       30.01S
MARION         MOSUNNY   75  49  39 NW13      30.01S
LANCASTER      PTSUNNY   73  53  49 CALM      30.02S
ZANESVILLE     MOSUNNY   74  50  42 N3        30.01S
NEW PHILLY     NOT AVBL
$$



USA.gov is the U.S. government's official web portal to all federal, state and local government web resources and services.